AirNav   TITAN Aviation Fuels
 
 1603 users online  

16X Propwash Airport
Justin, Texas, USA

GOING TO JUSTIN?


FAA INFORMATION EFFECTIVE 16 JUNE 2022

Location

FAA Identifier: 16X
Lat/Long: 33-04-50.2000N 097-21-30.3000W
33-04.836667N 097-21.505000W
33.0806111,-97.3584167
(estimated)
Elevation: 804 ft. / 245 m (estimated)
Variation: 07E (1985)
From city: 3 miles W of JUSTIN, TX
Time zone: UTC -5 (UTC -6 during Standard Time)
Zip code: 76247

Airport Operations

Airport use: Open to the public
Activation date: 08/1976
Control tower: no
ARTCC: FORT WORTH CENTER
FSS: FORT WORTH FLIGHT SERVICE STATION
NOTAMs facility: FTW (NOTAM-D service available)
Attendance: UNATNDD
Wind indicator: yes
Segmented circle: no
Lights: ACTVT LIRL RWY 17/35 - CTAF.
Beacon: white-green (lighted land airport)
ACTVT ROTG BCN - CTAF.

Airport Communications

CTAF: 122.9
WX ASOS at AFW (6 nm S): PHONE 817-491-6188
WX ASOS at DTO (11 nm NE): 119.325 (940-383-8457)
WX AWOS-3 at LUD (15 nm NW): 118.225 (940-627-2365)
WX ASOS at FTW (16 nm S): PHONE 817-740-3346
WX ASOS at DFW (20 nm SE): PHONE 972-615-2608

Airport Services

Runway Information

Runway 17/35

Dimensions: 3000 x 60 ft. / 914 x 18 m
Surface: asphalt, in fair condition
Runway edge lights: low intensity
RUNWAY 17  RUNWAY 35
Latitude: 33-05.083920N33-04.589110N
Longitude: 097-21.503135W097-21.506112W
Elevation: 804.0 ft.800.0 ft.
Traffic pattern: rightleft
Runway heading: 173 magnetic, 180 true353 magnetic, 000 true
Markings: basic, in fair conditionbasic, in fair condition
Obstructions: 36 ft. tree, 270 ft. from runway, 125 ft. left of centerline, 2:1 slope to clear
4 FT FENCE 60 FT FM RWY END 0 FT BOTH.
21 ft. tree, 201 ft. from runway, 112 ft. right of centerline
5 FT FENCE 70 FT FM RWY END ACRS APCH; 15 FT ROAD 80 FT FM RWY END ACRS APCH.

Airport Ownership and Management from official FAA records

Ownership: Privately-owned
Owner: PROPWASH OWNERS ASSOCIATION INC
15687 CESSNA ROAD
JUSTIN, TX 76247
Phone 940-648-1720
Manager: RUSSELL SHERWOOD
15851 GUY JAMES ROAD
JUSTIN, TX 76247
Phone 713-542-9570
RSHERWOOD@VERIZON.NET

Airport Operational Statistics

Aircraft based on the field: 109
Single engine airplanes: 94
Multi engine airplanes: 5
Helicopters: 4
Ultralights: 6
    
Aircraft operations: avg 102/week *
94% local general aviation
6% transient general aviation
* for 12-month period ending 31 December 2018

Additional Remarks

FOR CD CTC REGIONAL APCH AT 972-615-2799.
(CONTACT PHONE NR) MCEAGLE145@YAHOO.COM

Instrument Procedures

There are no published instrument procedures at 16X.

Some nearby airports with instrument procedures:

KAFW - Fort Worth Alliance Airport (6 nm S)
4T2 - Kenneth Copeland Airport (9 nm SW)
KDTO - Denton Enterprise Airport (11 nm NE)
KLUD - Decatur Municipal Airport (15 nm NW)
KFTW - Fort Worth Meacham International Airport (16 nm S)
KNFW - Fort Worth Naval Air Station JRB (Carswell Field) Airport (19 nm S)
KDFW - Dallas-Fort Worth International Airport (20 nm SE)
 
Loc | Ops | Rwys | IFR | FBO | Links
Com | Nav | Svcs | Stats | Notes

City of Fort Worth
 
Area around 16X (Propwash Airport)
 
Road maps at: MapQuest Bing Google
 
Aerial photo
WARNING: Photo may not be current or correct
Aerial photo of 16X (Propwash Airport)
Photo by Russell Sherwood
Taken in the Summer of 2016
looking north.

Do you have a better or more recent aerial photo of Propwash Airport that you would like to share? If so, please send us your photo.

 
Sectional chart

 
Airport distance calculator
Flying to Propwash Airport? Find the distance to fly.

From to 16X

Sunrise and sunset
Times for 29-Jun-2022
 Local
(UTC-5)
 Zulu
(UTC)
Morning civil twilight05:5610:56
Sunrise06:2411:24
Sunset20:4101:41
Evening civil twilight21:1002:10

Current date and time
Zulu (UTC)  29-Jun-2022 15:21:52
Local (UTC-5)  29-Jun-2022 10:21:52
 
METAR
KAFW 
7nm S 
291453Z 12008KT 10SM SCT100 SCT250 28/13 A3019 RMK AO2 SLP209 T02830133
KDTO 
11nm NE 
291453Z 13007KT 10SM CLR 28/15 A3021 RMK AO2 SLP220 T02780150 51013
KFTW 
15nm S 
291453Z 10010KT 10SM CLR 28/13 A3019 RMK AO2 SLP215 T02830128 51012
KLUD 
15nm NW 
118.22 940-927-2365
291455Z AUTO 13007KT 7SM CLR 27/13 A3022 RMK AO2 T02700134
KNFW 
19nm S 
291452Z 13010G19KT 10SM FEW120 FEW280 28/14 A3020 RMK AO2 SLP210 T02780139 51012 $
TAF
KAFW 
7nm S 
291120Z 2912/3012 07008KT P6SM SCT100
KFTW 
15nm S 
291120Z 2912/3012 08008KT P6SM SCT100
KNFW 
19nm S 
2907/3007 05008KT 9999 FEW060 SCT250 QNH3003INS AUTOMATED SENSOR METWATCH 2907 TIL 2911 T35/2922Z T24/3007Z FN00150
NOTAMs
Click for the latest NOTAMs
NOTAMs are issued by the DoD/FAA and will open in a separate window not controlled by AirNav.

 

 
 

Would you like to see your business listed on this page?

 If your business provides an interesting product or service to pilots, flight crews, aircraft, or users of the Propwash Airport, you should consider listing it here.  To start the listing process, click on the button below
 
Add a business
 

Other Pages about Propwash Airport

Update a link
 
Copyright © AirNav, LLC. All rights reserved. Privacy Policy  Contact